Flag Weather past 2 weeks in Plano, Texas, U.S.A.

Now
47 °F

Sunny.


Feels Like: 42 °F
Forecast: 41 / 65 °F
Wind: 10 mph from South

Location: McKinney Municipal Airport

Current Time: Nov 28, 2014 at 9:39:19 AM

Latest Report: Nov 28, 2014 at 8:53 AM


Visibility: 10 mi

Pressure: 30.29 "Hg

Humidity: 64%

Dew point: 35 °F

Location of PlanoLocation

Historic Weather in Plano — Graph

°F

Plano temperature yesterday

Maximum temperature yesterday: 58 °F (at 2:53 PM)
Minimum temperature yesterday: 35 °F (at 5:53 AM)
Average temperature yesterday: 45 °F

Past Weeks' High & Low Weather Summary

 TemperatureHumidityPressure
High75 °F (Nov 23, 2:53 PM)100% (Nov 15, 11:53 PM)30.66 "Hg (Nov 15, 11:53 PM)
Low20 °F (Nov 18, 4:53 AM)21% (Nov 18, 2:53 PM)29.38 "Hg (Nov 23, 2:53 PM)
Average45 °F64%30.20 "Hg
* Reported Nov 13 7:53 AM — Nov 28 7:53 AM, Plano, Weather by CustomWeather, © 2014

Note: Actual official high and low records may vary slightly from our data, if they occured in-between our weather recording intervals... More about our weather records

Advertising

Plano weather history for previous 24 hours

 ConditionsComfort  
Time TempWeatherWind HumidityBarometerVisibility
7:53 AM
Nov 28
39 °FSunny.7 mph82%30.29 "Hg10 mi
6:53 AM35 °FClear.8 mph85%30.29 "Hg10 mi
5:53 AM36 °FClear.No wind75%30.30 "Hg10 mi
4:53 AM33 °FClear.5 mph85%30.31 "Hg10 mi
3:53 AM34 °FClear.No wind76%30.33 "Hg10 mi
2:53 AM36 °FClear.3 mph73%30.34 "Hg10 mi
1:53 AM35 °FClear.5 mph72%30.35 "Hg10 mi
12:53 AM35 °FClear.No wind70%30.36 "Hg10 mi
11:53 PM
Nov 27
38 °FClear.No wind63%30.39 "Hg10 mi
10:53 PM37 °FClear.No wind65%30.40 "Hg10 mi
9:53 PM39 °FClear.No wind55%30.41 "Hg10 mi
8:53 PM41 °FClear.No wind53%30.43 "Hg10 mi
7:53 PM42 °FClear.No wind49%30.43 "Hg10 mi
6:53 PM47 °FClear.No wind39%30.43 "Hg10 mi
5:53 PM50 °FClear.3 mph35%30.44 "Hg10 mi
4:53 PM55 °FSunny.6 mph28%30.44 "Hg10 mi
3:53 PM58 °FSunny.7 mph23%30.44 "Hg10 mi
2:53 PM58 °FSunny.3 mph21%30.45 "Hg10 mi
1:53 PM57 °FSunny.3 mph23%30.47 "Hg10 mi
12:53 PM55 °FSunny.6 mph27%30.50 "Hg10 mi
11:53 AM53 °FSunny.8 mph30%30.53 "Hg10 mi
10:53 AM49 °FSunny.8 mph38%30.58 "Hg10 mi
9:53 AM46 °FSunny.7 mph44%30.59 "Hg10 mi
Weather by CustomWeather, © 2014

See weather overviewHow to use our weather pages